Regional Weather Roundup
Issued by NWS

Home | Current Version | Previous Version | Text Only | Print | Product List | Glossary On
Versions: 1 2 3 4 5 6 7 8 9 10 11 12 13 14 15 16 17 18 19 20 21 22 23 24 25 26 27 28 29 30 31 32 33 34 35 36 37 38 39 40 41 42 43 44 45 46 47 48 49 50
000
ASUS45 KBOU 252207
RWRCO

WEATHER ROUNDUP FOR COLORADO
NATIONAL WEATHER SERVICE DENVER/BOULDER CO
400 PM MDT FRI JUL 25 2014

NOTE: "FAIR" INDICATES FEW OR NO CLOUDS BELOW 12000 FEET WITH NO
SIGNIFICANT WEATHER AND/OR OBSTRUCTIONS TO VISIBILITY.

COZ001>005-013-030-031-252300-
...NORTHWEST COLORADO...

CITY           SKY/WX    TMP DP  RH WIND       PRES   REMARKS
CRAIG          PTSUNNY   83  49  30 S17G28    30.15S
HAYDEN         PTSUNNY   81  45  28 SW14G20   30.18F
MEEKER         PTSUNNY   85  43  22 MISG      30.17F
MOUNT WERNER   NOT AVBL
STEAMBOAT SPGS PTSUNNY   79  42  27 NE5       30.21F
WALDEN         PTSUNNY   73  36  25 SW15G26   30.30F
$$

COZ006>008-011-252300-
...WEST CENTRAL VALLEYS...

CITY           SKY/WX    TMP DP  RH WIND       PRES   REMARKS
GRAND JUNCTION TSTM      70  58  65 E10       30.14R
MONTROSE       PTSUNNY   85  52  32 N10       30.18F
EAGLE          PTSUNNY   82  48  30 SW13      30.21S
RIFLE          CLOUDY    83  50  31 W20       30.14R
DELTA          PTSUNNY   90  48  23 W9        30.14F
NUCLA          PTSUNNY   86  46  25 NW8       30.22F
$$

COZ017>023-064>068-252300-
...SOUTHWEST COLORADO...

CITY           SKY/WX    TMP DP  RH WIND       PRES   REMARKS
DURANGO        MOSUNNY   89  42  19 NW14      30.21F
CORTEZ         SUNNY     91  41  17 NW13      30.17F
PAGOSA SPRINGS MOSUNNY   85  34  16 SW10G21   30.30F
TELLURIDE      PTSUNNY   72  50  46 CALM      30.45F
WOLF CREEK PAS NOT AVBL
$$

COZ009-010-012-014-032>034-037-058>063-252300-
...CENTRAL COLORADO...

CITY           SKY/WX    TMP DP  RH WIND       PRES   REMARKS
ASPEN          MOSUNNY   80  41  24 N13G20    30.29S
BUENA VISTA    PTSUNNY   78  40  25 CALM      30.32F
COPPER MTN     MOSUNNY   72  36  26 W16G23    30.66F
BERTHOUD PASS  FAIR      55  43  62 W16       30.69F
COTTONWOOD PAS PTSUNNY   73  37  27 S3        30.49F
GUNNISON       MOSUNNY   75  50  41 N8        30.34F
KREMMLING      PTSUNNY   81  34  18 N7        30.25S
LEADVILLE      MOSUNNY   68  42  38 S10       30.46F
MONARCH PASS   PTSUNNY   64  36  34 SW20G25   30.77F
SALIDA         PTSUNNY  N/A N/A N/A W6        30.35S
SUNLIGHT       CLOUDY    55  54  94 CALM      30.60F THUNDER
WILKERSON PASS NOT AVBL
$$

COZ069>075-252300-
...SAN LUIS VALLEY/SANGRE DE CRISTO MOUNTAINS...

CITY           SKY/WX    TMP DP  RH WIND       PRES   REMARKS
ALAMOSA        CLOUDY    71  49  45 W14G24    30.30S
LA VETA PASS   MOSUNNY   70  39  32 SW10G17   30.51F
SAGUACHE       PTSUNNY   73  46  38 SW7       30.34R
$$

COZ035-036-038>040-252300-
...NORTHERN COLORADO FRONT RANGE...

CITY           SKY/WX    TMP DP  RH WIND       PRES   REMARKS
DENVER INTL AP CLOUDY    81  47  30 SE22G33   30.08R
DMNS CITY PARK   N/A     80  49  33 S12       30.10F
AURORA         LGT RAIN  73  56  55 NE16      30.13F
FRONT RANGE AP NOT AVBL
ERIE MUNI ARPT PTSUNNY   88  44  21 S18       30.05R
BOULDER MUN AP LGT RAIN  81  55  41 S9G17     30.05R
CENTENNIAL     LGT RAIN  78  50  37 SW16      30.16R
BROOMFIELD     PTSUNNY   91  45  19 S18G25    30.09F
FORT COLLINS   PTSUNNY   86  52  30 W6        30.04R
LONGMONT       PTSUNNY   93  47  20 S15G22    30.04S
$$

COZ041-046-047-076>085-087-088-252300-
...PIKES PEAK/PALMER DIVIDE AND SOUTHERN FOOTHILLS...

CITY           SKY/WX    TMP DP  RH WIND       PRES   REMARKS
COLO. SPRINGS  CLOUDY    82  47  29 W23G33    30.18R
A. F. ACADEMY  CLOUDY    73  50  43 W28G35    30.21R
ELLICOTT       CLOUDY    88  41  19 SE5       30.13F
FALCON         CLOUDY    79  51  37 SW5       30.22S
FORT CARSON    PTSUNNY   78  58  51 NW8       30.11S
LIMON          MOSUNNY   94  37  13 E9        30.06F
MONUMENT HILL  CLOUDY    73  46  38 S5        30.23R
TRINIDAD       PTSUNNY   92  44  19 CALM      30.08F
$$

COZ042>045-048>051-090-091-252300-
...NORTHEAST COLORADO...

CITY           SKY/WX    TMP DP  RH WIND       PRES   REMARKS
GREELEY ARPT   PTSUNNY   79  57  47 SE5       30.01F
AKRON          SUNNY     94  46  19 SE9       30.00F
BURLINGTON     SUNNY     95  55  26 E13       29.98F
WRAY             N/A     98  50  19 NE6       29.94F
STERLING       SUNNY     95  61  31 NE8       29.94F
HOLYOKE        SUNNY     95  59  30 E7        29.95F
FORT MORGAN    SUNNY     93  50  23 E8        29.99F
$$

COZ086-089-092>099-252300-
...SOUTHEAST COLORADO...

CITY           SKY/WX    TMP DP  RH WIND       PRES   REMARKS
PUEBLO         MOSUNNY   98  47  17 S12       29.98F
LA JUNTA       SUNNY    100  45  15 CALM      29.93F
LAMAR          SUNNY    103  48  15 MISG      29.87F
SPRINGFIELD      N/A    100  48  17 SE8       29.94F
$$


USA.gov is the U.S. government's official web portal to all federal, state and local government web resources and services.